Tracking 25701 objects as of 4-Jul-2022
HD Live streaming from Space Station
objects crossing your sky now

FENGYUN 1C DEB

Track FENGYUN 1C DEB now!
10-day predictions


NORAD ID: 32123
Int'l Code: 1999-025CRR
Perigee: 591.0 km
Apogee: 841.2 km
Inclination: 98.9 °
Period: 99.0 minutes
Semi major axis: 7087 km
RCS: 0.0018 m2 (small)
Launch date: May 10, 1999
Source: People's Republic of China (PRC)
Launch site: Taiyaun Space Center, China (TSC)

Note: This is SATELLITE DEBRIS
aabbcc
Your satellite tracking list
Your tracking list is empty




NASA's NSSDC Master Catalog

Two Line Element Set (TLE):
1 32123U 99025CRR 22184.14951785  .00000392  00000-0  85444-4 0  9996
2 32123  98.8910 249.7539 0176547 170.2194 222.6380 14.55122680530365
Source of the keplerian elements: AFSPC